Retour au catalogue

STARLINK-35874

ActifCommunicationsVLEO
NORAD 66962·PAYLOAD·🇺🇸 United States

Lancé Dec 8, 2025 depuis Cape Canaveral Space Force Station

Loading…

Prochains Passages (prochaines 24 heures)

TLE

FraisSource: CelesTrak SupGP

Époque: Sep 15, 2026, 03:17 UTC

1 66962C 25288D   26258.13729167 -.00006720  00000+0 -24336-3 0  2588
2 66962  43.0023  33.9854 0001728 268.0670 174.5803 15.27585940    17

Suivez STARLINK-35874 en temps réel avec AllMySat

Download on the App Store